Dewpoint
57 57 58 59 61 62 63 64 65 65 65 66 67 68 68 67 67 67 67 66 66 67
53 55 55 57 57 57 58 59 61 62 63 64 64 66 67 67 66 67 67 66 66 65
51 52 53 53 54 55 56 57 59 61 62 62 63 64 65 65 66 66 66 66 66 65
49 51 51 51 51 52 53 54 55 56 57 59 61 63 63 63 63 64 64 64 64 63
47 48 49 50 50 51 52 53 54 55 57 58 59 61 62 62 64 64 63 64 64 64
45 45 46 47 48 49 50 51 53 55 55 56 58 59 61 62 63 64 64 64 65 65
44 45 46 48 50 51 52 53 53 54 54 55 56 57 58 58 60 61 62 63 65 66
46 46 47 47 50 51 53 53 54 54 54 55 56 55 57 58 59 59 59 61 62 65
43 44 46 49 51 52 52 53 53 54 54 54 53 50 49 54 57 58 59 59 59 61
46 46 48 49 50 49 50 50 49 49 51 52 53 48 47 48 54 56 57 58 59 60
43 45 46 47 47 47 48 48 48 48 49 50 50 47 46 47 53 55 56 58 59 60
41 44 45 45 46 46 45 45 46 48 48 50 51 45 44 46 53 56 57 59 60 60
39 41 42 44 45 46 46 46 46 47 49 48 50 45 44 46 53 56 57 59 60 52
39 39 41 43 44 44 45 46 47 48 49 49 50 51 45 45 52 55 57 58 59 61
Lifted_Index
0 1 1 0 -0 -1 -2 -3 -4 -4 -5 -5 -5 -5 -5 -5 -5 -4 -4 -4 -4 -3
2 2 2 1 1 1 1 -0 -1 -3 -3 -4 -4 -4 -4 -4 -4 -4 -4 -4 -3 -3
3 3 3 3 3 3 3 3 1 -0 -1 -2 -2 -3 -3 -3 -3 -3 -3 -3 -3 -2
4 4 4 4 4 5 5 4 3 2 1 0 -0 -1 -2 -2 -3 -3 -3 -3 -2 -2
3 4 4 4 5 5 5 5 4 3 2 1 1 0 -0 -1 -2 -2 -2 -3 -3 -2
3 3 3 4 4 5 5 4 4 4 3 2 2 1 1 -0 -1 -1 -2 -2 -3 -3
2 3 3 3 4 4 4 4 4 3 3 3 2 2 1 1 1 0 -0 -1 -3 -3
2 2 2 3 3 3 3 3 3 3 3 3 3 2 2 2 2 2 1 1 -1 -2
2 2 2 2 3 3 4 4 4 4 4 4 4 4 4 4 3 3 3 2 1 -0
2 2 2 2 3 3 4 4 4 4 5 5 5 5 6 6 5 4 4 3 2 1
2 2 2 2 3 3 4 4 4 4 5 5 5 6 6 7 6 5 4 3 2 2
3 3 3 2 3 3 3 3 4 4 4 4 5 5 6 7 6 5 3 2 2 1
4 3 3 3 3 3 3 3 3 4 4 4 5 6 6 7 6 5 3 2 2 1
4 4 4 4 4 4 4 4 4 4 4 5 5 6 6 7 6 5 3 2 2 1